Regional Weather Roundup
Issued by NWS Green Bay, WI

Home | Current Version | Previous Version | Graphics & Text | Print | Product List | Glossary Off
Versions: 1 2 3 4 5 6 7 8 9 10 11 12 13 14 15 16 17 18 19 20 21 22 23 24 25 26 27 28 29 30 31 32 33 34 35 36 37 38 39 40 41 42 43 44 45 46 47 48 49 50

000
ASUS43 KGRB 191411
RWRGRB

NORTH-CENTRAL AND NORTHEAST WISCONSIN REGIONAL WEATHER ROUNDUP
NATIONAL WEATHER SERVICE GREEN BAY WI
800 AM CST SUN FEB 19 2017

WIZ005-009-010>012-018-019-191500-
NORTH CENTRAL WISCONSIN

CITY           SKY/WX    TMP DP  RH WIND       PRES   REMARKS
IRONWOOD       CLOUDY    29  27  92 CALM      29.98R
MANITOWISH WTR CLOUDY    26  26 100 CALM      29.97R
ARBOR VITAE    CLOUDY    29  27  92 CALM      29.98R
EAGLE RIVER    CLOUDY    28  27  95 CALM      29.96R
LAND O LAKES   MOSUNNY   28  25  89 CALM      29.98R
RHINELANDER    MOSUNNY   30  28  92 W3        29.99R
PHILLIPS       PTCLDY    27  26  99 CALM      29.98R
ANTIGO         SUNNY     28  27  96 CALM      30.00R
TOMAHAWK       PTCLDY    28  27  96 CALM      30.00R
MERRILL        NOT AVBL
$$

WIZ013-073-191500-
NORTHEAST WISCONSIN

CITY           SKY/WX    TMP DP  RH WIND       PRES   REMARKS
IRON MOUNTAIN  CLOUDY    33  26  75 CALM      29.96R
MARINETTE      MOSUNNY   39  30  70 CALM      30.00R
OCONTO         MOSUNNY   34  31  88 CALM      30.00R
$$

WIZ017-030-035>037-045-191500-
CENTRAL WISCONSIN

CITY           SKY/WX    TMP DP  RH WIND       PRES   REMARKS
MEDFORD        CLEAR     31  29  94 CALM      29.99R FOG
WAUSAU         SUNNY     33  31  92 CALM      29.99R
MOSINEE        MOSUNNY   34  34 100 W3        30.01R
MARSHFIELD     SUNNY     33  30  88 CALM      29.98R
WISC RAPIDS    SUNNY     30  29  96 CALM      30.02R
STEVENS POINT  SUNNY     28  28 100 CALM      30.01R
WAUPACA        SUNNY     37  33  88 CALM      30.01R
SHAWANO        SUNNY     36  32  85 W3        30.01R
CLINTONVILLE   SUNNY     34  32  93 CALM      30.01R
WAUTOMA        SUNNY     35  30  82 CALM      30.02R
$$

WIZ038-039-048-051-191500-
FOX VALLEY

CITY           SKY/WX    TMP DP  RH WIND       PRES   REMARKS
NWS GREEN BAY  SUNNY     39  35  86 NW5       30.01R
APPLETON       MOSUNNY   37  30  75 W3        29.98R
OSHKOSH        SUNNY     38  32  79 W3        30.00R
FOND DU LAC    SUNNY     37  30  75 SW7       30.02R
$$

WIZ022-050-052-191500-
EAST CENTRAL WISCONSIN

CITY           SKY/WX    TMP DP  RH WIND       PRES   REMARKS
EPHRAIM        FAIR      42  31  64 NW5       29.98R
WASHINGTON ISL FAIR      37  30  77 CALM      29.99R
STURGEON BAY   SUNNY     40  31  70 W3        30.00R
MANITOWOC      SUNNY     43  33  68 MISG      30.02R
SHEBOYGAN      SUNNY     40  32  73 W5        30.00R
$$

LMZ563-521-522-541>543-191500-
LAKESHORE

STATION/POSITION TIME  TEMP    WIND        PRES    VSBY  WAVE
                       AIR SEA DIR/SP/G                  HT/PER
                 (UTC) (F)     (DEG/KT/KT) (MB)    (MI)  (FT/S)
SHEBOYGAN LKSHOR 1400   47     300/  5/  7 1016.2R
KEWAUNEE LKSHORE 1342   40     300/  4/  6 1014.9R
NORTHPORT PIER   1340   45     310/ 11/ 13 1015.2R
CHAMBERS ISLAND  1340   42     250/  4/  6 1014.9R
MENOMINEE LKSHOR 1342   36     190/  1/  3 1014.5R
$$




USA.gov is the U.S. government's official web portal to all federal, state and local government web resources and services.